Location: River House Observatory
(37.8577°N, 76.3548°W)
Time: 17:59:17
(UTC-05:00)

N. Korean satellite - Visible Passes

Search period start: 16 January 2018 00:00
Search period end: 26 January 2018 00:00
Orbit: 459 x 515 km, 97.2° (Epoch: 16 January)

Date Brightness Start Highest point End Pass type
(mag) Time Alt. Az. Time Alt. Az. Time Alt. Az.
16 Jan 6.4 06:50:48 10° N 06:54:16 85° WNW 06:57:41 10° SSW visible
16 Jan 9.8 18:59:41 10° SW 19:02:03 16° W 19:04:24 10° NW visible
17 Jan 8.0 06:27:18 10° NNE 06:30:35 41° E 06:33:51 10° S visible
17 Jan 8.5 18:35:00 10° SSW 18:38:19 32° W 18:41:35 10° NNW visible
18 Jan 9.5 06:04:15 10° NE 06:06:50 20° E 06:09:25 10° SE visible
18 Jan 6.9 18:11:00 10° S 18:14:37 71° W 18:18:12 10° NNW visible
19 Jan 6.7 17:47:28 10° SSE 17:51:00 52° ENE 17:54:29 10° N visible
20 Jan 9.7 18:58:32 10° SW 19:00:55 17° W 19:03:16 10° NW visible
21 Jan 8.0 06:26:09 10° NNE 06:29:25 40° E 06:32:41 10° S visible
21 Jan 8.5 18:33:52 10° SSW 18:37:09 33° W 18:40:24 10° NNW visible
22 Jan 9.5 06:03:06 10° NE 06:05:40 19° E 06:08:13 10° SE visible
22 Jan 6.8 18:09:52 10° S 18:13:27 73° W 18:17:00 10° NNW visible
23 Jan 6.7 17:46:21 10° SSE 17:49:49 50° ENE 17:53:15 10° N visible
24 Jan 9.7 18:57:22 10° SW 18:59:44 17° W 19:02:04 10° NW visible
25 Jan 8.1 06:24:56 10° NNE 06:28:12 39° E 06:31:29 10° S visible
25 Jan 8.4 18:32:42 10° SSW 18:35:57 33° W 18:39:11 10° NNW visible
